Location: Unspecified
(0.0000°N, 0.0000°E)
Time: 18:50:40
(UTC+00:00)

Vanguard 3 - Pass Details

Date: 21 November 2019
Orbit: 508 x 3263 km, 33.3° (Epoch: 06 December)

Event Time Altitude Azimuth Distance (km) Brightness Sun altitude
Rises 07:27:07 0° 209° (SSW) 3,979 10.6 23.7°
Reaches altitude 10° 07:29:53 10° 198° (SSW) 3,342 10.4 24.4°
Maximum altitude 07:37:32 30° 138° (SE) 2,896 11.5 26.1°
Drops below altitude 10° 07:49:28 10° 83° (E) 5,317 12.4 28.9°
Sets 07:55:15 0° 75° (ENE) 6,723 12.5 30.2°
